COSMOS 1275 DEB, 13022

Orbit data source: Space-Track

COSMOS 1275 DEB, 13022 is space debris in LEO originally from a launch on Thu, 04 Jun 1981 UTC launched from the Plesetsk Missile And Space Complex (PKMTR). Debris objects in space refer to the collection of defunct objects orbiting the Earth. Examples of debris include non-operational satellites, rocket bodies, and fragments generated from explosions, collisions, or faulty payload assembly.

Loading next visibility...
Identifier
13022, 1981-053EU
Orbit
LEO
Country
Flag of CISCIS
Related business
Manufacturer
Unknown
Mission
Spacecraft
Bus & Motor
Unknown
Mass
Unknown
Launch date (UTC)
1981-06-04 (45 years ago)
Launch vehicle
Unknown
Launch site
Plesetsk Missile And Space Complex (PKMTR)
Object type
Payload
Rocket body
Debris
Shape & HBR
Unknown shape, 0.1 m
Radar Cross Section
Small (<0.1 m²)

Expand to show TLE details & history
Last TLE update: 22 hours ago

TLE from 22 hours ago
0 COSMOS 1275 DEB
1 13022U 81053EU  25338.70499602  .00002458  00000-0  11413-2 0  9994
2 13022  82.9157  57.8847 0043691 226.5330 292.2126 14.19844105257842
Epoch: 2025-12-04T16:55Z
TLE epoch observation values (Epoch: 2025-12-04T16:55:11.656Z)
Latitude
21.556°
Longitude
-92.47061°
Altitude
816.784 km
Speed
7.453 km/s
True Right ascension
15h 40m 20s
True Declination
21° 26' 23"
Sunlit
Object was in daylight at epoch
Visualization orbit readout
Latitude
Unknown
Longitude
Unknown
Altitude
Unknown
Speed
Unknown
Apparent Right ascension
Unknown
Apparent Declination
Unknown
Sunlit
N/A
Visualization observer readout
Local Sidereal Time
12:44:49
Azimuth
Unknown
Elevation
Unknown
Doppler factor
Unknown
Orbital elements
Apogee altitude
854.43 km
Perigee altitude
791.506 km
Semi-major axis
7,201.105 km
Eccentricity
0.00437
Inclination
82.9157°
RAAN
57.8847°
Arg. of periapsis
226.533°
True anomaly
291.74814°
Mean anomaly
292.2126°
Eccentric anomaly
291.98047°
Mean motion
3.55177 °/min
Orbital period
101.36 mins
BSTAR
0.0011413
Loading maneuver chart data...
Computing Atmospheric mass density...

Documentation

Showing up to 5 results
|